Weather History for Texarkana, AR

Change the Weather History Date:

Friday, January 11, 2013

  Actual Average Record
Temperature  
Mean Temperature 58 °F 43 °F  
Max Temperature 70 °F 53 °F 81 °F (1928)
Min Temperature 46 °F 34 °F 5 °F (1982)
Degree Days  
Heating Degree Days 7 22  
Month to date heating degree days 221 242  
Since 1 July heating degree days 1119 1309  
Cooling Degree Days 0 0  
Month to date cooling degree days 0 0  
Year to date cooling degree days 0 0  
Growing Degree Days 8 (Base 50)    
Moisture  
Dew Point 47 °F    
Average Humidity 69    
Maximum Humidity 93    
Minimum Humidity 45    
Precipitation  
Precipitation 0.00 in 0.10 in 1.28 in (1931)
Month to date precipitation 0.89 1.32  
Year to date precipitation 0.89 1.32  
Snow  
Snow 0.00 in - - ()
Month to date snowfall 0.0  
Since 1 July snowfall 2.0  
Snow Depth 0.00 in    
Sea Level Pressure  
Sea Level Pressure 29.93 in    
Wind  
Wind Speed 9 mph (South)    
Max Wind Speed 17 mph    
Max Gust Speed 23 mph    
Visibility 10 miles    
Events      
T = Trace of Precipitation, MM = Missing Value Source: NWS Daily Summary

Daily Weather History Graph

Daily Weather History Graph

Search for Another Location

Airport:

Trip Planner

Search our weather history database for the weather conditions in past years. The results will help you decide how hot, cold, wet, or windy it might be!

Date:

Astronomy

Jan. 11, 2013 Rise Set
Actual Time 7:20 AM CST 5:27 PM CST
Civil Twilight 6:53 AM CST 5:54 PM CST
Nautical Twilight 6:22 AM CST 6:25 PM CST
Astronomical Twilight 5:52 AM CST 6:55 PM CST
Moon 6:56 AM CST (1/11) 5:43 PM CST (1/11)
Length of Visible Light 11h 01m
Length of Day
10h 07m
Waning Crescent, 0% of the Moon is Illuminated
Jan 11
Waning Crescent
Jan 11
New
Jan 18
First Quarter
Jan 26
Full
Feb 3
Last Quarter

Hourly Weather History & Observations

Time (CST) Temp. Dew Point Humidity Pressure Visibility Wind Dir Wind Speed Gust Speed Precip Events Conditions
12:53 AM 48.9 °F 45.0 °F 86% 29.99 in 10.0 mi SSW 5.8 mph - N/A   Clear
1:53 AM 46.9 °F 44.1 °F 90% 30.00 in 10.0 mi SSW 3.5 mph - N/A   Clear
2:53 AM 46.9 °F 44.1 °F 90% 29.99 in 10.0 mi South 6.9 mph - N/A   Clear
3:53 AM 46.9 °F 44.1 °F 90% 29.98 in 10.0 mi South 8.1 mph - N/A   Clear
4:53 AM 46.9 °F 44.1 °F 90% 29.96 in 10.0 mi SSW 5.8 mph - 0.01 in   Clear
5:53 AM 46.9 °F 44.1 °F 90% 29.95 in 10.0 mi South 8.1 mph - N/A   Clear
6:53 AM 46.9 °F 44.1 °F 90% 29.96 in 10.0 mi South 9.2 mph - N/A   Clear
7:53 AM 48.0 °F 44.1 °F 86% 29.97 in 10.0 mi South 8.1 mph - N/A   Clear
8:53 AM 51.1 °F 46.0 °F 83% 30.00 in 10.0 mi SSW 6.9 mph - N/A   Clear
9:53 AM 55.0 °F 46.9 °F 74% 29.99 in 10.0 mi SSW 8.1 mph - N/A   Clear
10:53 AM 59.0 °F 46.0 °F 62% 29.98 in 10.0 mi SSW 9.2 mph - N/A   Clear
11:53 AM 64.9 °F 46.9 °F 52% 29.96 in 10.0 mi SSW 9.2 mph - N/A   Clear
12:53 PM 66.9 °F 46.0 °F 47% 29.91 in 10.0 mi South 8.1 mph - N/A   Clear
1:53 PM 68.0 °F 46.0 °F 45% 29.90 in 10.0 mi South 9.2 mph - N/A   Clear
2:53 PM 69.1 °F 48.9 °F 49% 29.87 in 10.0 mi SE 13.8 mph 19.6 mph N/A   Clear
3:53 PM 69.1 °F 48.0 °F 47% 29.87 in 10.0 mi SSE 12.7 mph - N/A   Clear
4:53 PM 64.9 °F 48.0 °F 54% 29.86 in 10.0 mi SE 10.4 mph - N/A   Clear
5:53 PM 63.0 °F 48.0 °F 58% 29.86 in 10.0 mi SSE 10.4 mph - N/A   Clear
6:53 PM 62.1 °F 48.9 °F 62% 29.87 in 10.0 mi SSE 11.5 mph - N/A   Clear
7:53 PM 62.1 °F 50.0 °F 65% 29.88 in 10.0 mi SSE 12.7 mph - N/A   Scattered Clouds
8:53 PM 62.1 °F 51.1 °F 67% 29.88 in 10.0 mi South 10.4 mph 18.4 mph N/A   Overcast
9:53 PM 63.0 °F 52.0 °F 67% 29.88 in 10.0 mi South 10.4 mph 18.4 mph N/A   Overcast
10:53 PM 61.0 °F 52.0 °F 72% 29.89 in 10.0 mi South 9.2 mph - N/A   Scattered Clouds
11:53 PM 62.1 °F 53.1 °F 72% 29.88 in 10.0 mi South 13.8 mph - N/A   Overcast